Weather History for PHLI - February, 2013

Change the Weather History Date:

Saturday, February 16, 2013

  Actual Average Record
Temperature  
Mean Temperature 71 °F 72 °F  
Max Temperature 76 °F 78 °F 86 °F (1981)
Min Temperature 66 °F 66 °F 55 °F (1965)
Degree Days  
Heating Degree Days 0 0  
Month to date heating degree days 0 0  
Since 1 July heating degree days 0 0  
Cooling Degree Days 6 7  
Month to date cooling degree days 114 112  
Year to date cooling degree days 307 321  
Growing Degree Days 24 (Base 50)    
Moisture  
Dew Point 64 °F    
Average Humidity 74    
Maximum Humidity 84    
Minimum Humidity 64    
Precipitation  
Precipitation 0.02 in 0.12 in 1.64 in (1994)
Month to date precipitation 0.27 1.77  
Year to date precipitation 6.15 5.52  
Snow  
Snow 0.00 in - - ()
Month to date snowfall 0.0  
Since 1 July snowfall 0.0  
Snow Depth 0.00 in    
Sea Level Pressure  
Sea Level Pressure 30.15 in    
Wind  
Wind Speed 21 mph (ENE)    
Max Wind Speed 28 mph    
Max Gust Speed 35 mph    
Visibility 10 miles    
Events      
T = Trace of Precipitation, MM = Missing Value Source: NWS Daily Summary

Daily Weather History Graph

Daily Weather History Graph

Search for Another Location

Airport or City:

Trip Planner

Search our weather history database for the weather conditions in past years. The results will help you decide how hot, cold, wet, or windy it might be!

Date:

Astronomy

Feb. 16, 2013 Rise Set
Actual Time 7:07 AM HST 6:35 PM HST
Civil Twilight 6:44 AM HST 6:58 PM HST
Nautical Twilight 6:18 AM HST 7:24 PM HST
Astronomical Twilight 5:52 AM HST 7:50 PM HST
Moon 11:21 AM HST (2/16) No Moon Set
Length of Visible Light 12h 13m
Length of Day
11h 27m
Waxing Crescent, 41% of the Moon is Illuminated
Feb 16
Waxing Crescent
Feb 17
First Quarter
Feb 25
Full
Mar 4
Last Quarter
Mar 11
New

Hourly Weather History & Observations

Time (HST) Temp. Dew Point Humidity Pressure Visibility Wind Dir Wind Speed Gust Speed Precip Events Conditions
12:53 AM 73.0 °F 66.2 °F 79% 30.13 in 10.0 mi ENE 20.7 mph - 0.00 in   Mostly Cloudy
1:27 AM 71.6 °F 66.2 °F 83% 30.14 in 10.0 mi ENE 19.6 mph - N/A   Overcast
1:34 AM 71.6 °F 66.2 °F 83% 30.14 in 10.0 mi ENE 23.0 mph - N/A   Overcast
1:53 AM 72.0 °F 65.5 °F 80% 30.13 in 10.0 mi ENE 17.3 mph - N/A   Mostly Cloudy
2:01 AM 71.6 °F 66.2 °F 83% 30.13 in 10.0 mi ENE 21.9 mph 28.8 mph N/A   Mostly Cloudy
2:11 AM 71.6 °F 66.2 °F 83% 30.13 in 10.0 mi ENE 17.3 mph 25.3 mph N/A   Mostly Cloudy
2:37 AM 71.6 °F 66.2 °F 83% 30.12 in 10.0 mi ENE 19.6 mph - N/A   Mostly Cloudy
2:53 AM 72.0 °F 65.5 °F 80% 30.12 in 10.0 mi ENE 18.4 mph - N/A   Overcast
3:38 AM 71.6 °F 64.4 °F 78% 30.11 in 10.0 mi ENE 20.7 mph 28.8 mph N/A   Mostly Cloudy
3:53 AM 72.0 °F 65.1 °F 79% 30.11 in 10.0 mi ENE 20.7 mph 26.5 mph N/A   Partly Cloudy
4:53 AM 72.0 °F 64.8 °F 78% 30.11 in 10.0 mi ENE 21.9 mph 28.8 mph 0.00 in   Mostly Cloudy
5:20 AM 71.6 °F - N/A% 30.12 in 10.0 mi ENE 20.7 mph - N/A   Scattered Clouds
5:30 AM 71.6 °F - N/A% 30.12 in 10.0 mi ENE 21.9 mph - N/A   Mostly Cloudy
5:53 AM 72.9 °F 64.4 °F 75% 30.12 in 10.0 mi ENE 18.4 mph - N/A   Mostly Cloudy
6:05 AM 71.6 °F 64.4 °F 78% 30.13 in 10.0 mi ENE 23.0 mph - N/A   Overcast
6:53 AM 72.0 °F 64.4 °F 77% 30.14 in 10.0 mi ENE 20.7 mph - N/A   Overcast
7:19 AM 71.6 °F 64.4 °F 78% 30.15 in 10.0 mi East 17.3 mph 25.3 mph N/A   Mostly Cloudy
7:46 AM 71.6 °F 64.4 °F 78% 30.16 in 10.0 mi ENE 19.6 mph - 0.02 in   Overcast
7:53 AM 72.0 °F 64.4 °F 77% 30.16 in 10.0 mi ENE 16.1 mph - 0.02 in   Overcast
8:16 AM 71.6 °F 64.4 °F 78% 30.17 in 10.0 mi ENE 21.9 mph - 0.00 in   Mostly Cloudy
8:48 AM 71.6 °F 64.4 °F 78% 30.18 in 10.0 mi ENE 23.0 mph - 0.00 in   Overcast
8:53 AM 71.1 °F 64.4 °F 79% 30.18 in 10.0 mi East 23.0 mph - 0.00 in   Overcast
9:53 AM 73.0 °F 64.4 °F 74% 30.19 in 10.0 mi ENE 24.2 mph - N/A   Overcast
10:38 AM 75.2 °F - N/A% 30.19 in 10.0 mi ENE 20.7 mph 29.9 mph N/A   Overcast
10:53 AM 75.0 °F 64.4 °F 69% 30.18 in 10.0 mi ENE 21.9 mph - N/A   Overcast
11:30 AM 75.2 °F 64.4 °F 69% 30.18 in 10.0 mi ENE 21.9 mph 27.6 mph N/A   Mostly Cloudy
11:53 AM 75.0 °F 64.4 °F 69% 30.17 in 10.0 mi ENE 21.9 mph - N/A   Mostly Cloudy
12:53 PM 75.9 °F 62.6 °F 63% 30.14 in 10.0 mi ENE 21.9 mph - N/A   Overcast
1:53 PM 75.9 °F 62.6 °F 63% 30.13 in 10.0 mi ENE 23.0 mph 31.1 mph N/A   Overcast
2:53 PM 75.9 °F - N/A% 30.12 in 10.0 mi ENE 21.9 mph - N/A   Partly Cloudy
3:53 PM 75.0 °F - N/A% 30.12 in 10.0 mi NE 17.3 mph 25.3 mph N/A   Mostly Cloudy
4:53 PM 73.9 °F - N/A% 30.12 in 10.0 mi NE 18.4 mph - N/A   Mostly Cloudy
5:53 PM 72.0 °F - N/A% 30.14 in 9.0 mi NE 17.3 mph 25.3 mph N/A   Partly Cloudy
6:53 PM 72.0 °F - N/A% 30.15 in 10.0 mi NE 18.4 mph - N/A   Scattered Clouds
7:53 PM 72.0 °F - N/A% 30.16 in 10.0 mi NE 26.5 mph 31.1 mph N/A   Overcast
8:53 PM 72.0 °F - N/A% 30.18 in 10.0 mi NE 18.4 mph - N/A   Mostly Cloudy
9:53 PM 71.1 °F - N/A% 30.19 in 10.0 mi ENE 20.7 mph - 0.00 in   Scattered Clouds
10:53 PM - - N/A% 30.19 in 10.0 mi ENE 20.7 mph - N/A   Mostly Cloudy
11:53 PM 71.1 °F 63.0 °F 75% 30.18 in 10.0 mi ENE 24.2 mph 29.9 mph N/A   Mostly Cloudy